CW3185 Weather Reports


Display with metric or nautical units.
time (UTC)temp
F
wind
direction
speed
MPH
gust
MPH
rain 1hr
in
rain 24hr
in
rain mn
in
humidity
%
barometer
mb
20260507083504 51 98 0.0 0.0 0.00 0.00 0.00 71 1012.5
20260507083004 51 169 0.0 0.0 0.00 0.00 0.00 70 1012.5
20260507073504 48 123 0.0 0.0 0.00 0.00 0.00 73 1012.8
20260507073005 48 162 0.0 0.0 0.00 0.00 0.00 75 1012.8
20260507070504 47 202 0.0 0.0 0.00 0.00 0.00 77 1012.8
20260507070009 47 219 0.0 0.0 0.00 0.00 0.00 77 1012.8
20260507063504 46 194 0.0 0.0 0.00 0.00 0.00 82 1012.8
20260507060004 43 222 0.0 0.0 0.00 0.00 0.00 81 1012.7
20260507053504 43 228 0.0 0.0 0.00 0.00 0.00 81 1012.8
20260507050504 43 222 0.0 0.0 0.00 0.00 0.00 80 1012.9
20260507043504 43 213 0.0 0.0 0.00 0.00 0.00 78 1012.9
20260507043005 43 223 0.0 0.0 0.00 0.00 0.00 79 1012.9
20260507040504 43 226 0.0 0.0 0.00 0.00 0.00 79 1012.8
20260507040004 43 226 0.0 0.0 0.00 0.00 0.00 79 1012.9
20260507033504 43 226 0.0 0.0 0.00 0.00 0.00 79 1012.9
20260507033004 43 226 0.0 0.0 0.00 0.00 0.00 79 1012.9
20260507030504 43 195 0.0 0.0 0.00 0.00 0.00 78 1013.0
20260507030004 43 195 0.0 0.0 0.00 0.00 0.00 78 1013.0
20260507023505 43 275 0.0 0.0 0.00 0.00 0.00 78 1013.2
20260507023004 43 275 0.0 0.0 0.00 0.00 0.00 78 1013.3
20260507020504 43 214 0.0 0.0 0.00 0.00 0.00 78 1013.3
20260507020004 43 234 0.0 0.0 0.00 0.00 0.00 78 1013.3
20260507013505 44 178 0.0 0.0 0.00 0.00 0.00 76 1013.4
20260507013005 44 261 0.0 0.0 0.00 0.00 0.00 76 1013.4
20260507010504 44 172 0.0 0.0 0.00 0.00 0.00 75 1013.5
20260507010005 44 182 0.0 0.0 0.00 0.00 0.00 75 1013.5
20260507003505 45 112 0.0 0.0 0.00 0.00 0.00 74 1013.5
20260507003005 45 159 0.0 0.0 0.00 0.00 0.00 74 1013.6
20260507000505 45 238 0.0 0.0 0.00 0.00 0.00 73 1013.9
20260507000005 45 227 0.0 0.0 0.00 0.00 0.00 73 1013.9
20260506230504 46 157 0.0 0.0 0.00 0.00 0.00 73 1014.0
20260506223505 46 203 0.0 0.0 0.00 0.00 0.00 73 1014.1
20260506223005 46 290 0.0 0.0 0.00 0.00 0.00 73 1014.0
20260506220504 46 241 0.0 0.0 0.00 0.00 0.00 74 1014.1
20260506220005 46 232 0.0 5.0 0.00 0.00 0.00 74 1014.1
20260506213004 46 218 0.0 0.0 0.00 0.00 0.00 76 1014.2
20260506210504 45 215 0.0 0.0 0.00 0.00 0.00 77 1014.2
20260506210005 45 223 0.0 0.0 0.00 0.00 0.00 76 1014.3
20260506203004 45 238 1.0 3.0 0.00 0.00 0.00 76 1014.4
20260506200005 46 234 0.0 0.0 0.00 0.00 0.00 73 1014.4
20260506193004 46 267 0.0 0.0 0.00 0.00 0.00 70 1014.4
20260506190505 47 237 0.0 0.0 0.00 0.00 0.00 68 1014.4
20260506190005 47 275 0.0 0.0 0.00 0.00 0.00 67 1014.4
20260506183503 48 306 0.0 0.0 0.00 0.00 0.00 62 1014.4
20260506180504 49 81 0.0 0.0 0.00 0.00 0.00 58 1014.2
20260506180005 49 78 0.0 0.0 0.00 0.00 0.00 58 1014.1
20260506173504 49 103 0.0 0.0 0.00 0.00 0.00 55 1014.3
20260506173004 49 89 0.0 0.0 0.00 0.00 0.00 56 1014.2
20260506170616 50 80 0.0 0.0 0.00 0.00 0.00 55 1014.4
20260506170116 51 106 0.0 7.0 0.00 0.00 0.00 55 1014.4
20260506163616 50 108 0.0 0.0 0.00 0.00 0.00 54 1014.3
20260506163116 51 100 0.0 0.0 0.00 0.00 0.00 53 1014.4
20260506160615 51 306 0.0 1.0 0.00 0.00 0.00 54 1014.5
20260506160116 51 55 0.0 8.0 0.00 0.00 0.00 55 1014.5
20260506150616 52 117 0.0 0.0 0.00 0.00 0.00 54 1015.0
20260506150116 52 81 0.0 3.0 0.00 0.00 0.00 55 1015.0
20260506143615 52 100 0.0 0.0 0.00 0.00 0.00 57 1015.0
20260506143116 52 39 0.0 0.0 0.00 0.00 0.00 57 1015.0
20260506140615 52 236 0.0 0.0 0.00 0.00 0.00 55 1015.5
20260506133616 53 220 0.0 0.0 0.00 0.00 0.00 60 1015.5
20260506133115 51 302 0.0 0.0 0.00 0.00 0.00 60 1015.6
20260506130615 51 134 0.0 0.0 0.00 0.00 0.00 60 1015.6
20260506130116 51 71 0.0 3.0 0.00 0.00 0.00 59 1015.8
20260506123116 51 231 0.0 2.0 0.00 0.00 0.00 58 1015.8
20260506120615 54 73 1.0 5.0 0.00 0.00 0.00 55 1015.7
20260506120115 53 107 0.0 5.0 0.00 0.00 0.00 59 1015.9
20260506113615 54 202 0.0 0.0 0.00 0.00 0.00 57 1016.0
20260506113115 54 63 0.0 0.0 0.00 0.00 0.00 56 1016.0
20260506110615 51 339 0.0 0.0 0.00 0.00 0.00 58 1016.2
20260506110115 51 293 0.0 0.0 0.00 0.00 0.00 61 1016.1
20260506103615 51 94 0.0 0.0 0.00 0.00 0.00 61 1016.3
20260506103116 51 249 0.0 3.0 0.00 0.00 0.00 61 1016.4
20260506100615 50 225 0.0 0.0 0.00 0.00 0.00 56 1016.6
20260506100115 50 256 0.0 0.0 0.00 0.00 0.00 58 1016.6
20260506093615 49 100 0.0 1.0 0.00 0.00 0.00 63 1016.6
20260506093115 49 78 0.0 0.0 0.00 0.00 0.00 61 1016.7